STARLINK-36265, 67208

Orbit data source: Space-Track

STARLINK-36265, 67208 is a payload satellite owned by SpaceX/Seattle (US) in LEO that was launched on Wed, 17 Dec 2025 UTC via an FALCON 9 launch vehicle from the Air Force Western Test Range (AFWTR). Payload-class satellites include a variety of spacecraft equipped with specific instruments for various scientific and technological missions. These include communications satellites like Starlink; space stations such as the ISS; scientific satellites like the Hubble; Earth observation satellites from companies like Planet Labs, Umbra, and HawkEye 360; GPS; miniature CubeSats for education and research; and military/defense satellites.

Loading next visibility...
Identifier
67208, 2025-304S
Orbit
LEO
Country
Flag of USUS
Related business
Manufacturer
SpaceX/Seattle
Mission
Operational Commercial Communications
Bus & Motor
STARLINK V2MO, Unknown motor
Mass
575 kg wet, ~530 kg dry
Launch date (UTC)
2025-12-17 (6 months ago)
Launch vehicle
FALCON 9
Launch site
Air Force Western Test Range (AFWTR)
Object type
Payload
Rocket body
Debris
Shape & HBR
Box + 2 Pan, 17.7 m
Radar Cross Section
36.964 m², Large (>1 m²)

Expand to show TLE details & history
Last TLE update: 10 hours ago

TLE from 10 hours ago
0 STARLINK-36265
1 67208U 25304S   26171.44782554  .00002652  00000-0  22996-3 0  9999
2 67208  70.0008 275.4969 0003179 269.7303  90.3492 14.98337027 29273
Epoch: 2026-06-20T10:44Z
TLE epoch observation values (Epoch: 2026-06-20T10:44:52.126Z)
Latitude
-0.00001°
Longitude
-154.38261°
Altitude
574.472 km
Speed
7.574 km/s
True Right ascension
18h 21m 59s
True Declination
0° 00' 00"
Sunlit
Object was in full shadow at epoch
Visualization orbit readout
Latitude
Unknown
Longitude
Unknown
Altitude
Unknown
Speed
Unknown
Apparent Right ascension
Unknown
Apparent Declination
Unknown
Sunlit
N/A
Visualization observer readout
Local Sidereal Time
07:14:08
Azimuth
Unknown
Elevation
Unknown
Doppler factor
Unknown
Orbital elements
Apogee altitude
572.191 km
Perigee altitude
567.773 km
Semi-major axis
6,948.119 km
Eccentricity
0.00032
Inclination
70.0008°
RAAN
275.4969°
Arg. of periapsis
269.7303°
True anomaly
90.38563°
Mean anomaly
90.3492°
Eccentric anomaly
90.36741°
Mean motion
3.74751 °/min
Orbital period
96.06 mins
BSTAR
0.00022996
Loading maneuver chart data...
Computing Atmospheric mass density...
Loading historical data...
Loading historical data...
Loading historical data...
Loading historical data...
Loading historical data...
Loading historical data...
Loading historical data...

Documentation

Showing up to 5 results
|